Weather History for KGFK - March, 2013

Change the Weather History Date:

Saturday, March 9, 2013

  Actual Average Record
Temperature  
Mean Temperature 26 °F 21 °F  
Max Temperature 29 °F 30 °F 58 °F (2015)
Min Temperature 22 °F 13 °F -32 °F (1948)
Degree Days  
Heating Degree Days 39 44  
Month to date heating degree days 411 411  
Since 1 July heating degree days 7412 7561  
Cooling Degree Days 0 0  
Month to date cooling degree days 0 0  
Year to date cooling degree days 0 0  
Moisture  
Dew Point 20 °F    
Average Humidity 81    
Maximum Humidity 92    
Minimum Humidity 69    
Precipitation  
Precipitation T in 0.03 in 0.52 in (2010)
Month to date precipitation 0.39 0.26  
Year to date precipitation 1.18 1.33  
Snow  
Snow T in 0.30 in - ()
Month to date snowfall 9.5 2.7  
Since 1 July snowfall 39.4 39.9  
Snow Depth 8.00 in    
Sea Level Pressure  
Sea Level Pressure 29.94 in    
Wind  
Wind Speed 14 mph (North)    
Max Wind Speed 26 mph    
Max Gust Speed 33 mph    
Visibility 8 miles    
Events Snow    
T = Trace of Precipitation, MM = Missing Value Source: NWS Daily Summary

Daily Weather History Graph

Daily Weather History Graph

Search for Another Location

Airport or City:

Trip Planner

Search our weather history database for the weather conditions in past years. The results will help you decide how hot, cold, wet, or windy it might be!

Date:

Astronomy

Mar. 09, 2013 Rise Set
Actual Time 6:53 AM CST 6:25 PM CST
Civil Twilight 6:22 AM CST 6:56 PM CST
Nautical Twilight 5:46 AM CST 7:32 PM CST
Astronomical Twilight 5:10 AM CST 8:09 PM CST
Moon 5:25 AM CST (3/9) 4:23 PM CST (3/9)
Length of Visible Light 12h 34m
Length of Day
11h 32m
Waning Crescent, 5% of the Moon is Illuminated
Mar 9
Waning Crescent
Mar 11
New
Mar 19
First Quarter
Mar 27
Full
Apr 2
Last Quarter

Hourly Weather History & Observations

Time (CST) Temp. Windchill Dew Point Humidity Pressure Visibility Wind Dir Wind Speed Gust Speed Precip Events Conditions
12:17 AM 23.0 °F 14.7 °F 17.6 °F 80% 30.05 in 10.0 mi North 6.9 mph - N/A   Overcast
12:30 AM 23.0 °F 13.9 °F 17.6 °F 80% 30.04 in 10.0 mi North 8.1 mph - N/A   Overcast
12:53 AM 23.0 °F 14.7 °F 18.0 °F 81% 30.07 in 10.0 mi North 6.9 mph - N/A   Overcast
1:53 AM 23.0 °F 13.1 °F 17.1 °F 78% 30.04 in 10.0 mi North 9.2 mph - N/A   Overcast
2:53 AM 21.9 °F 11.0 °F 17.1 °F 82% 30.01 in 10.0 mi North 10.4 mph - N/A   Overcast
3:53 AM 21.9 °F 11.0 °F 19.0 °F 89% 29.98 in 9.0 mi North 10.4 mph - N/A   Overcast
4:53 AM 23.0 °F 11.1 °F 19.9 °F 88% 29.96 in 8.0 mi North 12.7 mph - N/A   Overcast
5:53 AM 24.1 °F 13.7 °F 21.0 °F 88% 29.96 in 8.0 mi North 10.4 mph - N/A   Overcast
6:53 AM 23.0 °F 12.4 °F 19.9 °F 88% 29.95 in 8.0 mi NNW 10.4 mph - N/A   Overcast
7:53 AM 23.0 °F 10.6 °F 19.9 °F 88% 29.92 in 6.0 mi North 13.8 mph - N/A   Overcast
8:53 AM 24.1 °F 13.7 °F 21.0 °F 88% 29.93 in 3.0 mi NNW 10.4 mph - 0.00 in Snow Light Snow
9:11 AM 24.8 °F 13.4 °F 21.2 °F 86% 29.88 in 2.0 mi NNW 12.7 mph - 0.00 in Snow Light Snow
9:25 AM 23.0 °F 11.1 °F 19.4 °F 86% 29.86 in 3.0 mi NNW 12.7 mph - 0.01 in Snow Light Snow
9:53 AM 23.0 °F 10.6 °F 19.9 °F 88% 29.90 in 3.0 mi NNW 13.8 mph - 0.01 in   Overcast
10:53 AM 24.1 °F 11.0 °F 21.0 °F 88% 29.88 in 3.0 mi North 16.1 mph - 0.00 in Snow Light Snow
11:53 AM 25.0 °F 12.2 °F 21.0 °F 85% 29.88 in 8.0 mi NNW 16.1 mph - 0.00 in   Overcast
12:53 PM 27.0 °F 14.3 °F 21.9 °F 81% 29.86 in 8.0 mi North 17.3 mph - N/A   Overcast
1:53 PM 27.0 °F 14.7 °F 21.9 °F 81% 29.87 in 9.0 mi NNW 16.1 mph - N/A   Overcast
2:20 PM 28.4 °F 17.0 °F 21.2 °F 74% 29.83 in 10.0 mi North 15.0 mph - N/A   Overcast
2:53 PM 28.0 °F 17.0 °F 21.0 °F 75% 29.87 in 10.0 mi NNW 13.8 mph - N/A   Overcast
3:53 PM 28.0 °F 16.5 °F 19.9 °F 72% 29.86 in 10.0 mi NNW 15.0 mph - N/A   Overcast
4:53 PM 28.0 °F 18.1 °F 21.0 °F 75% 29.88 in 10.0 mi NNW 11.5 mph - N/A   Overcast
5:53 PM 27.0 °F 16.7 °F 21.0 °F 78% 29.91 in 10.0 mi North 11.5 mph - N/A   Overcast
6:16 PM 26.6 °F 15.2 °F 21.2 °F 80% 29.88 in 10.0 mi North 13.8 mph - N/A   Overcast
6:53 PM 27.0 °F 16.1 °F 21.9 °F 81% 29.94 in 10.0 mi North 12.7 mph - N/A   Overcast
7:49 PM 26.6 °F 13.8 °F 23.0 °F 86% 29.92 in 9.0 mi North 17.3 mph - N/A   Overcast
7:53 PM 27.0 °F 14.7 °F 23.0 °F 85% 29.96 in 9.0 mi North 16.1 mph - N/A   Overcast
8:45 PM 24.8 °F 11.1 °F 21.2 °F 86% 29.94 in 10.0 mi North 18.4 mph - N/A   Overcast
8:53 PM 25.0 °F 10.6 °F 19.9 °F 81% 29.99 in 10.0 mi North 20.7 mph - N/A   Overcast
9:53 PM 24.1 °F 9.0 °F 19.0 °F 81% 30.02 in 10.0 mi NNW 21.9 mph 29.9 mph N/A   Overcast
10:53 PM 23.0 °F 6.9 °F 18.0 °F 81% 30.03 in 10.0 mi NNW 24.2 mph 31.1 mph N/A   Overcast
11:53 PM 23.0 °F 6.9 °F 18.0 °F 81% 30.05 in 10.0 mi NNW 24.2 mph - N/A   Overcast